Flag for France Weather past 2 weeks in Bordeaux, France

Now
46 °F

Drizzle. Fog.


Feels Like: 42 °F
Forecast: 52 / 56 °F
Wind: 9 mph from South

Location: Bordeaux / Merignac

Current Time: Feb 28, 2015 at 3:44:12 PM

Latest Report: Feb 28, 2015 at 3:00 PM


Visibility: 3 mi

Pressure: 30.09 "Hg

Humidity: 93%

Dew point: 45 °F

Location of BordeauxLocation

Historic Weather in Bordeaux — Graph

°F

Bordeaux temperature yesterday

Maximum temperature yesterday: 52 °F (at 2:00 PM)
Minimum temperature yesterday: 39 °F (at 11:30 PM)
Average temperature yesterday: 46 °F

Past Weeks' High & Low Weather Summary

 TemperatureHumidityPressure
High59 °F (Feb 19, 4:30 PM)100% (Feb 15, 1:00 AM)30.69 "Hg (Feb 15, 1:00 AM)
Low32 °F (Feb 22, 7:00 AM)44% (Feb 13, 2:00 PM)29.71 "Hg (Feb 15, 3:30 AM)
Average46 °F82%30.10 "Hg
* Reported Feb 13 2:00 PM — Feb 28 2:30 PM, Bordeaux, Weather by CustomWeather, © 2015

Note: Actual official high and low records may vary slightly from our data, if they occured in-between our weather recording intervals... More about our weather records

Advertising

Bordeaux weather history for previous 24 hours

 ConditionsComfort  
Time TempWeatherWind HumidityBarometerVisibility
2:30 PM
Sat, Feb 28
46 °FMostly cloudy.10 mph93%30.12 "HgN/A
2:00 PM46 °FDrizzle. Partly sunny.9 mph87%30.12 "HgN/A
1:30 PM46 °FLight rain. Fog.12 mph93%30.15 "Hg3 mi
1:00 PM46 °FBroken clouds.12 mph87%30.15 "HgN/A
12:30 PM46 °FLight rain. Mostly cloudy.15 mph87%30.15 "HgN/A
12:00 PM46 °FCloudy.12 mph87%30.15 "HgN/A
11:30 AM46 °FLight rain. Mostly cloudy.12 mph82%30.18 "HgN/A
11:00 AM46 °FBroken clouds.10 mph82%30.18 "HgN/A
10:30 AM46 °FOvercast.10 mph76%30.18 "HgN/A
10:00 AM46 °FMore clouds than sun.9 mph76%30.18 "HgN/A
9:30 AM45 °FMostly cloudy.9 mph81%30.18 "HgN/A
9:00 AM45 °FMostly cloudy.10 mph81%30.18 "HgN/A
8:30 AM43 °FMostly cloudy.9 mph87%30.18 "HgN/A
8:00 AM43 °FMostly cloudy.7 mph81%30.18 "HgN/A
7:30 AM43 °FMostly cloudy.8 mph81%30.18 "HgN/A
7:00 AM41 °FClear.7 mph87%30.18 "HgN/A
6:30 AM41 °FClear.7 mph87%30.18 "HgN/A
6:00 AM41 °FMostly cloudy.6 mph87%30.18 "HgN/A
5:30 AM41 °FMostly cloudy.5 mph87%30.21 "HgN/A
5:00 AM41 °FClear.6 mph87%30.21 "HgN/A
4:30 AM41 °FClear.5 mph87%30.21 "HgN/A
4:00 AM41 °FMostly cloudy.5 mph87%30.21 "HgN/A
3:30 AM41 °FOvercast.5 mph87%30.24 "HgN/A
3:00 AM39 °FOvercast.3 mph93%30.24 "HgN/A
2:30 AM41 °FClear.5 mph87%30.27 "HgN/A
2:00 AM39 °FClear.3 mph93%30.27 "HgN/A
1:30 AM39 °FClear.1 mph87%30.27 "HgN/A
1:00 AM39 °FClear.2 mph87%30.27 "HgN/A
12:30 AM39 °FClear.2 mph87%30.27 "HgN/A
12:00 AM39 °FClear.2 mph87%30.30 "HgN/A
11:30 PM
Fri, Feb 27
39 °FClear.2 mph87%30.30 "HgN/A
11:00 PM41 °FClear.6 mph81%30.30 "HgN/A
10:30 PM41 °FClear.3 mph81%30.30 "HgN/A
10:00 PM41 °FClear.3 mph76%30.30 "HgN/A
9:30 PM41 °FClear.3 mph81%30.33 "HgN/A
9:00 PM43 °FClear.6 mph76%30.30 "HgN/A
8:30 PM43 °FClear.5 mph76%30.30 "HgN/A
8:00 PM45 °FClear.5 mph71%30.33 "HgN/A
7:30 PM45 °FClear.6 mph71%30.33 "HgN/A
7:00 PM45 °FClear.6 mph66%30.30 "HgN/A
6:30 PM48 °FClear.8 mph54%30.30 "HgN/A
6:00 PM48 °FPassing clouds.12 mph54%30.30 "HgN/A
5:30 PM50 °FPassing clouds.12 mph47%30.30 "HgN/A
5:00 PM50 °FPassing clouds.14 mph50%30.27 "HgN/A
4:30 PM52 °FClear.15 mph44%30.27 "HgN/A
4:00 PM52 °FClear.14 mph44%30.27 "HgN/A
3:30 PM52 °FPartly sunny.10 mph50%30.27 "HgN/A
3:00 PM50 °FClear.9 mph47%30.27 "HgN/A
Weather by CustomWeather, © 2015

See weather overviewHow to use our weather pages